sat.trackr.live / text

‹ back to catalog

UNKNOWN

NORAD 81964

UNKNOWN UNKNOWN UNKNOWN

§ Identity

Operator
Country
Launch date
Launch site
Launch vehicle
Mass (kg)
RCS (m²)

External: N2YO · Heavens-Above

§ Orbital elements

Epoch: 2026-05-23T14:28:31.721088Z

Period
103.16 min
Inclination
66.5843°
Eccentricity
0.0039752
Mean motion
13.95899974 rev/d
Perigee alt
879.1 km
Apogee alt
937.0 km
Semi-major
7,286.2 km
B*
1.2913e-4
RAAN
216.7605°
Arg perigee
329.1298°
Mean anomaly
30.7444°
Rev number
63,663

§ Raw data

UNKNOWN1 81964U          26143.60314492  .00000098  00000+0  12913-3 0  99982 81964  66.5843 216.7605 0039752 329.1298  30.7444 13.95899974636639

JSON: /api/v1/satellites/81964 · /tle

For live sub-satellite position, see the globe view (requires WebGL).

§ Visibility from observer

Set your observer location to see the next 7 days of passes ≥ 10°. The values pass through the URL so the page stays shareable.

No JS? Fill the form by hand. The geolocation button needs JavaScript.